Location: Newark
(25.4800°N, 85.7200°E)
Time: 19:20:09
(UTC+00:00)

Transit 4A - Pass Details

Date: 25 August 2019
Orbit: 867 x 978 km, 66.8° (Epoch: 18 October)

Event Time Altitude Azimuth Distance (km) Brightness Sun altitude
Rises 11:16:47 0° 210° (SSW) 3,632 11.4 18.6°
Reaches altitude 10° 11:19:21 10° 214° (SW) 2,698 10.8 18.0°
Maximum altitude 11:25:36 63° 294° (WNW) 1,079 9.0 16.6°
Drops below altitude 10° 11:31:56 10° 16° (NNE) 2,725 10.3 15.2°
Sets 11:34:33 0° 19° (NNE) 3,671 10.9 14.6°
